LKNA Weather Reports


time (UTC)temp
C
wind
direction
speed
KPH
gust
KPH
rain 1hr
cm
rain 24hr
cm
rain mn
cm
humidity
%
barometer
mb
20260507203110 12 300 11.3 0.0 0.00 0.00 0.00 66 1014.0
20260507202036 13 300 11.3 0.0 0.00 0.00 0.00 58
20260507200105 13 300 12.9 0.0 0.00 0.00 0.00 58 1014.0
20260507193109 15 290 8.0 0.0 0.00 0.00 0.00 54 1013.0
20260507192135 15 290 8.0 0.0 0.00 0.00 0.00 54
20260507190240 15 290 8.0 0.0 0.00 0.00 0.00 54 1013.0
20260507183110 15 280 8.0 0.0 0.00 0.00 0.00 58 1013.0
20260507182033 16 290 8.0 0.0 0.00 0.00 0.00 51
20260507180113 15 290 9.7 0.0 0.00 0.00 0.00 62 1013.0
20260507173111 15 290 11.3 0.0 0.00 0.00 0.00 58 1012.0
20260507172033 16 280 19.3 0.0 0.00 0.00 0.00 51
20260507170248 17 280 16.1 0.0 0.00 0.00 0.00 48 1012.0
20260507163110 17 270 14.5 0.0 0.00 0.00 0.00 51 1012.0
20260507162333 17 270 11.3 0.0 0.00 0.00 0.00 55
20260507160234 17 280 9.7 0.0 0.00 0.00 0.00 55 1012.0
20260507153358 16 30 8.0 0.0 0.00 0.00 0.00 63 1012.0
20260507153110 16 30 8.0 0.0 0.00 0.00 0.00 63 1012.0
20260507152040 17 10 11.3 0.0 0.00 0.00 0.00 55
20260507150113 17 10 9.7 0.0 0.00 0.00 0.00 59 1012.0
20260507143110 15 220 19.3 0.0 0.00 0.00 0.00 62 1012.0
20260507142035 17 200 11.3 0.0 0.00 0.00 0.00 45
20260507141018 17 210 11.3 0.0 0.00 0.00 0.00 42 1012.0
20260507140240 17 210 11.3 0.0 0.00 0.00 0.00 42 1012.0
20260507133109 17 160 11.3 0.0 0.00 0.00 0.00 52 1012.0
20260507132135 17 200 19.3 0.0 0.00 0.00 0.00 42
20260507130112 17 180 16.1 0.0 0.00 0.00 0.00 42 1012.0
20260507123109 17 210 20.9 0.0 0.00 0.00 0.00 42 1012.0
20260507122033 18 210 22.5 0.0 0.00 0.00 0.00 42
20260507120241 18 210 22.5 0.0 0.00 0.00 0.00 39 1012.0
20260507113110 17 200 19.3 0.0 0.00 0.00 0.00 45 1012.0
20260507112049 17 220 14.5 0.0 0.00 0.00 0.00 45
20260507110105 18 220 14.5 0.0 0.00 0.00 0.00 45 1012.0
20260507103109 17 260 16.1 0.0 0.00 0.00 0.00 48 1012.0
20260507102233 17 210 14.5 0.0 0.00 0.00 0.00 48
20260507100233 17 210 16.1 0.0 0.00 0.00 0.00 48 1012.0
20260507093110 16 240 12.9 0.0 0.00 0.00 0.00 55 1012.0
20260507092034 15 230 11.3 0.0 0.00 0.00 0.00 62
20260507090119 15 230 12.9 0.0 0.00 0.00 0.00 62 1012.0
20260507083110 13 250 16.1 0.0 0.00 0.00 0.00 67 1011.0
20260507082033 13 250 19.3 0.0 0.00 0.00 0.00 62
20260507080112 13 260 16.1 0.0 0.00 0.00 0.00 67 1011.0
20260507073110 12 260 16.1 0.0 0.00 0.00 0.00 71 1011.0
20260507072034 12 230 19.3 0.0 0.00 0.00 0.00 71
20260507070242 12 240 16.1 0.0 0.00 0.00 0.00 71 1011.0
20260507063110 12 230 12.9 0.0 0.00 0.00 0.00 76 1011.0
20260507062034 12 240 19.3 0.0 0.00 0.00 0.00 76
20260507060113 12 240 19.3 0.0 0.00 0.00 0.00 81 1010.0
20260507053110 12 230 19.3 0.0 0.00 0.00 0.00 81 1010.0
20260507052033 12 220 14.5 0.0 0.00 0.00 0.00 81
20260507050113 12 220 14.5 0.0 0.00 0.00 0.00 81 1010.0
20260507043110 12 240 14.5 0.0 0.00 0.00 0.00 87 1009.0
20260507042235 11 240 14.5 0.0 0.00 0.00 0.00 93
20260507040239 12 250 12.9 0.0 0.00 0.00 0.00 87 1009.0
20260507033110 12 230 11.3 0.0 0.00 0.00 0.00 87 1009.0
20260507032034 11 230 11.3 0.0 0.00 0.00 0.00 93
20260507030105 11 240 11.3 0.0 0.00 0.00 0.00 93 1009.0
20260507023110 11 220 12.9 0.0 0.00 0.00 0.00 93 1009.0
20260507022032 11 220 11.3 0.0 0.00 0.00 0.00 93
20260507020105 11 210 11.3 0.0 0.00 0.00 0.00 93 1008.0
20260507013109 12 230 11.3 0.0 0.00 0.00 0.00 87 1008.0
20260507012132 12 230 11.3 0.0 0.00 0.00 0.00 81
20260507010105 12 230 11.3 0.0 0.00 0.00 0.00 87 1008.0
20260507003109 12 250 11.3 0.0 0.00 0.00 0.00 82 1007.0
20260507002033 12 250 11.3 0.0 0.00 0.00 0.00 81
20260507000241 12 250 11.3 0.0 0.00 0.00 0.00 82 1007.0
20260506233110 13 250 19.3 0.0 0.00 0.00 0.00 76 1007.0
20260506232033 12 280 19.3 0.0 0.00 0.00 0.00 82
20260506230106 12 280 19.3 0.0 0.00 0.00 0.00 82 1006.0
20260506223111 15 270 19.3 0.0 0.00 0.00 0.00 72 1006.0
20260506222306 15 240 14.5 0.0 0.00 0.00 0.00 72
20260506220105 15 240 12.9 0.0 0.00 0.00 0.00 72 1005.0
20260506213110 16 170 14.5 0.0 0.00 0.00 0.00 63 1005.0
20260506212055 16 130 19.3 0.0 0.00 0.00 0.00 63
20260506210113 16 120 16.1 0.0 0.00 0.00 0.00 63 1005.0